Location: Unspecified
(0.0000°N, 0.0000°E)
Time: 18:03:39
(UTC+00:00)

N. Korean satellite - Pass Details

Date: 09 January 2018
Orbit: 459 x 515 km, 97.2° (Epoch: 17 January)

Event Time Altitude Azimuth Distance (km) Brightness Sun altitude
Rises 18:41:32 0° 183° (S) 2,629 10.6 -7.9°
Reaches altitude 10° 18:43:45 10° 191° (S) 1,740 9.9 -8.5°
Maximum altitude 18:47:13 36° 259° (WSW) 818 8.5 -9.3°
Drops below altitude 10° 18:50:40 10° 327° (NNW) 1,723 9.5 -10.1°
Sets 18:52:51 0° 336° (NNW) 2,600 10.3 -10.6°
